Location: Shepherdstown, WV
(39.4326°N, 77.8042°W)
Time: 10:34:17
(UTC-04:00)

Tiangong - Pass Details

Date: 01 July 2021
Orbit: 374 x 386 km, 41.5° (Epoch: 25 July)

Event Time Altitude Azimuth Distance (km) Brightness Sun altitude
Rises 21:33:14 0° 202° (SSW) 2,213 4.7 -8.9°
Reaches altitude 10° 21:36:18 10° 168° (SSE) 1,367 3.4 -9.3°
Enters shadow 21:36:48 11° 159° (SSE) 1,303 3.2 -9.4°
